Location: Paris
(48.6709°N, 2.3750°E)
Time: 01:09:15
(UTC+02:00)

STARS - Pass Details

Date: 30 June 2022
Orbit: 620 x 637 km, 98.2° (Epoch: 16 August)

Event Time Altitude Azimuth Distance (km) Brightness Sun altitude
Rises 01:31:21 0° 6° (N) 2,940 ? -18.0°
Reaches altitude 10° 01:33:44 10° 356° (N) 2,024 ? -18.0°
Maximum altitude 01:37:37 31° 294° (WNW) 1,106 ? -18.0°
Enters shadow 01:40:40 14° 238° (WSW) 1,730 ? -18.1°
